{"data":{"norad_id":56779,"epoch":"2026-05-25T03:09:23.631264Z","epoch_age_seconds":66819,"freshness":"FRESH","line1":"1 56779U 23078N   26145.13152351  .00000731  00000+0  69083-4 0  9993","line2":"2 56779  69.9988 131.7248 0003549 268.2909  91.7844 14.98320012164619","mean_motion":14.98320012,"eccentricity":0.0003549,"inclination_deg":69.9988,"raan_deg":131.7248,"arg_perigee_deg":268.2909,"mean_anomaly_deg":91.7844,"bstar":6.9083e-5,"rev_number":16461,"period_min":96.107639787701,"perigee_km":569.62014376321,"apogee_km":574.55341260096,"semimajor_km":6950.2237781821,"source":"CELESTRAK","updated_at":"2026-05-25T13:38:18.151798Z"}}